Hourly Data Report for October 13, 2016

All times are specified in Local Standard Time (LST). Add 1 hour to adjust for Daylight Saving Time where and when it is observed.

POND INLET A
NUNAVUT

72°41'22.000" N
77°58'08.000" W
61.60 m
2403206
71095
YIO

Download Data

Hourly Data (October 2016)
Hourly Data Report for October 13, 2016
Temp Definition
°C
Dew Point Temp Definition
°C
Rel Hum Definition
%
Wind Dir Definition
10's deg

Wind Spd Definition
km/h
Visibility Definition
km
Stn Press Definition
kPa
Hmdx Definition


Wind Chill Definition


Weather Definition


TIME
00:00 Legend Double Dagger -10.2 -13.3 78 14 18 16.1 100.88   -18 LegendNANA
01:00 Legend Double Dagger -10.5 -13.1 81 15 17 8.1 100.89   -18 Snow
02:00 Legend Double Dagger -10.5 -12.9 83 14 18 12.9 100.91   -18 Snow
03:00 Legend Double Dagger -10.8 -13.2 83 14 17 3.2 100.91   -18 Snow
04:00 Legend Double Dagger -11.0 -13.9 80 14 18 16.1 100.90   -19 Snow
05:00 Legend Double Dagger -13.3 -15.5 84 16 17 16.1 100.87   -21 Snow
06:00 Legend Double Dagger -15.8 -18.5 80 14 18 16.1 100.86   -25 LegendNANA
07:00 Legend Double Dagger -13.6 -16.6 79 14 22 16.1 100.84   -23 LegendNANA
08:00 Legend Double Dagger -13.9 -16.2 83 14 15 16.1 100.82   -22 LegendNANA
09:00 Legend Double Dagger -15.7 -18.0 83 14 13 16.1 100.77   -23 LegendNANA
10:00 Legend Double Dagger -15.0 -17.3 83 15 13 16.1 100.72   -22 LegendNANA
11:00 Legend Double Dagger -16.4 -19.0 81 14 9 16.1 100.70   -22 LegendNANA
12:00 Legend Double Dagger -13.2 -15.2 85 10 11 16.1 100.65   -19 LegendNANA
13:00 Legend Double Dagger -14.8 -16.8 85 11 8 16.1 100.62   -20 LegendNANA
14:00 Legend Double Dagger -15.2 -17.1 86 15 9 16.1 100.59   -21 LegendNANA
15:00 Legend Double Dagger -14.0 -16.6 81 14 18 16.1 100.58   -22 LegendNANA
16:00 Legend Double Dagger -15.1 -18.2 78 14 21 16.1 100.56   -25 LegendNANA
17:00 Legend Double Dagger -14.8 -18.4 74 15 21 16.1 100.55   -24 LegendNANA
18:00 Legend Double Dagger -15.2 -18.2 78 15 22 16.1 100.55   -25 LegendNANA
19:00 Legend Double Dagger -15.2 -18.3 77 14 24 16.1 100.54   -25 LegendNANA
20:00 Legend Double Dagger -15.5 -18.0 82 14 22 16.1 100.55   -25 LegendNANA
21:00 Legend Double Dagger -15.2 -17.2 85 14 21 16.1 100.55   -25 LegendNANA
22:00 Legend Double Dagger -13.6 -14.9 90 15 21 16.1 100.53   -23 LegendNANA
23:00 Legend Double Dagger -15.0 -17.0 85 14 18 16.1 100.52   -24 LegendNANA

Notes on Data Quality.

Legend

  • E = Estimated
  • M = Missing
  • NA = Not Available
  • ‡ = Partner data that is not subject to review by the National Climate Archives
Date modified: